www.pogodaiklimat.ru

Погода и климат >> Архив погоды >> Великобритания >> Ростерн Мир


ПОГОДА на Ростерн Мир

  • Прогноз погоды на Ростерн Мир
  • Монитор погоды на Ростерн Мир

АРХИВ ПОГОДЫ на Ростерн Мир

Время (UTC), дата Ветер
(напр.,м/с)
 
Видим.   Явления Облачность Т
(С)
Тd
(С)
f
(%)
Тe
(С)
Тes
(С)
Комфортность P
(гПа)
Po
(гПа)
Тmin
(С)
Tmax
(С)
R
(мм)
R24
(мм)
S
(см)
13 10.09 З 5 30 км н/о +17.2 +9.3 60 +17 +17 1019.7 1015.6
14 10.09 З 5 40 км н/о +15.8 +9.3 65 +15 +15 1019.9 1015.7
15 10.09 СЗ 5 30 км н/о +16.7 +9.0 60 +16 +16 1019.4 1015.2
16 10.09 СЗ 5 40 км н/о +16.4 +8.6 60 +16 +16 1019.3 1015.1
17 10.09 З 3 28 км н/о +15.4 +9.6 68 +15 +15 1018.7 1014.5
18 10.09 СЗ 3 30 км н/о +14.0 +9.7 75 +13 +13 1018.8 1014.6 +17.7 0.0
19 10.09 З 2 24 км н/о +13.2 +10.0 81 +13 +13 1018.6 1014.4
20 10.09 ЮЗ 2 35 км н/о +13.5 +9.3 76 +13 +13 1018.4 1014.2
21 10.09 ЮЗ 3 23 км слаб. морось с дождем н/о +13.0 +8.0 72 +12 +12 1018.3 1014.1
22 10.09 Ю 3 35 км в посл. час дождь н/о +12.6 +9.2 80 +11 +11 1017.7 1013.4
23 10.09 Ю 3 28 км н/о +12.6 +9.5 81 +11 +11 1016.7 1012.5
00 11.09 Ю 4 23 км слаб. ливневой дождь н/о +13.0 +10.3 84 +11 +11 1015.9 1011.7 0.0
01 11.09 Ю 4 27 км в посл. час дождь н/о +13.3 +10.5 83 +12 +12 1014.9 1010.6
02 11.09 Ю 4 6000 м слаб. ливневой дождь н/о +13.3 +11.8 91 +12 +12 1014.7 1010.5
03 11.09 Ю 3 45 км в посл. час дождь н/о +13.8 +12.5 92 +13 +13 1014.1 1009.9
04 11.09 Ю 5 50 км н/о +14.8 +13.2 90 +13 +13 1013.0 1008.8
05 11.09 Ю 3 16 км слаб. ливневой дождь н/о +15.0 +14.0 94 +14 +14 1012.8 1008.6
06 11.09 ЮЗ 3 5000 м слаб. дождь н/о +15.1 +14.5 96 +14 +14 1013.0 1008.8 +12.4 1
07 11.09 ЮЗ 5 9000 м дождь н/о +16.2 +15.7 97 +15 +15 1012.8 1008.6
08 11.09 ЮЗ 5 4700 м в посл. час дождь н/о +16.2 +15.6 96 +15 +15 1013.3 1009.1
09 11.09 З 4 4700 м слаб. морось н/о +16.5 +16.0 97 +16 +16 1013.9 1009.7
10 11.09 З 7
{16}
35 км в посл. час дождь н/о +17.3 +16.5 95 +16 +16 1014.7 1010.6
11 11.09 З 6
{13}
28 км н/о +17.1 +13.7 80 +16 +16 1015.8 1011.6
12 11.09 СЗ 7
{13}
23 км н/о +17.1 +10.8 66 +16 +16 1016.9 1012.8 3
13 11.09 З 8
{13}
29 км н/о +18.2 +11.1 63 +18 +18 1017.3 1013.1
14 11.09 З 8
{13}
22 км н/о +18.8 +11.3 62 +19 +19 1018.1 1014.0
15 11.09 З 7-13
{13}
28 км н/о +18.4 +9.9 58 +18 +18 1018.5 1014.3
16 11.09 З 5 24 км н/о +16.8 +11.3 70 +16 +16 1018.8 1014.6
17 11.09 З 5 23 км н/о +17.4 +12.1 71 +17 +17 1019.2 1015.0
18 11.09 З 6 21 км н/о +16.3 +10.6 69 +15 +15 1019.8 1015.6 +19.3 3
19 11.09 З 3 21 км н/о +14.2 +10.0 76 +13 +13 1020.3 1016.0
20 11.09 ЮЗ 3 17 км н/о +14.3 +11.1 81 +14 +14 1020.9 1016.7
21 11.09 ЮЗ 2 18 км н/о +13.6 +10.6 82 +13 +13 1021.3 1017.1
22 11.09 ЮЗ 3 23 км н/о +13.9 +11.1 83 +13 +13 1021.7 1017.4
23 11.09 ЮЗ 3 22 км н/о +14.2 +11.5 84 +13 +13 1021.7 1017.4
00 12.09 ЮЗ 2 22 км н/о +13.3 +11.0 86 +13 +13 1022.1 1017.8
01 12.09 ЮЗ 3 21 км н/о +12.6 +10.7 88 +11 +11 1022.5 1018.2
02 12.09 Ю 3 16 км н/о +12.4 +11.3 93 +11 +11 1022.8 1018.5
03 12.09 Ю 2 18 км н/о +12.5 +11.3 92 +11 +11 1022.6 1018.3
04 12.09 Ю 3 17 км н/о +12.6 +11.2 91 +11 +11 1022.4 1018.2
05 12.09 Ю 3 16 км н/о +12.9 +11.6 92 +12 +12 1022.7 1018.4
06 12.09 Ю 3 15 км н/о +12.9 +11.6 92 +12 +12 1022.8 1018.6 +12.1
07 12.09 Ю 3 17 км н/о +13.5 +12.3 92 +12 +12 1023.1 1018.9
08 12.09 Ю 4 19 км н/о +14.6 +12.9 90 +13 +13 1023.2 1019.0
09 12.09 Ю 4 22 км н/о +16.1 +13.8 86 +15 +15 1023.2 1019.0
10 12.09 Ю 4 40 км н/о +17.4 +14.6 84 +17 +17 1023.2 1019.0
11 12.09 Ю 3 35 км н/о +18.5 +15.3 82 +19 +19 1023.1 1019.0
12 12.09 ЮЗ 3 30 км н/о +20.1 +16.8 81 +23 +23 комфорт 1022.6 1018.5
13 12.09 ЮЗ 5 35 км н/о +20.3 +16.3 78 +23 +23 комфорт 1022.7 1018.5
14 12.09 ЮЗ 4 45 км н/о +19.4 +15.6 79 +21 +21 комфорт 1022.9 1018.8
15 12.09 ЮЗ 4 30 км н/о +19.4 +13.6 69 +21 +21 комфорт 1022.8 1018.7
16 12.09 ЮЗ 4 26 км н/о +18.9 +14.6 76 +20 +20 1023.2 1019.0
17 12.09 З 4 45 км н/о +18.8 +15.6 82 +20 +20 1023.6 1019.4
18 12.09 ЮЗ 5 50 км н/о +18.6 +15.4 82 +19 +19 1023.8 1019.6 +20.7
19 12.09 З 6 23 км в посл. час дождь н/о +16.5 +15.6 94 +15 +15 1025.4 1021.2
20 12.09 СЗ 5 25 км н/о +14.9 +13.9 94 +13 +13 1027.2 1023.0
21 12.09 СЗ 4 26 км н/о +14.1 +12.7 91 +13 +13 1028.4 1024.1
22 12.09 СЗ 3 20 км н/о +12.8 +11.0 89 +11 +11 1029.4 1025.1
23 12.09 СЗ 3 21 км н/о +11.1 +9.5 90 +9 +9 1029.8 1025.5
00 13.09 СЗ 3 26 км н/о +10.2 +8.6 90 +8 +8 1030.5 1026.2 0.2
01 13.09 СЗ 3 25 км н/о +9.6 +8.3 92 +7 +7 1031.3 1027.0
02 13.09 В 1 17 км н/о +7.5 +6.4 93 +8 +8 1032.1 1027.8
03 13.09 ЮЗ 1 16 км н/о +7.6 +7.3 98 +6 +6 1032.6 1028.2
04 13.09 Ю 1 1200 м в посл. час туман н/о +6.3 +5.9 97 +5 +5 1033.0 1028.6
05 13.09 З 2 10 км в посл. час туман н/о +5.4 +5.2 99 +3 +3 1033.5 1029.1
06 13.09 СЗ 2 19 км н/о +6.2 +6.2 100 +4 +4 1034.1 1029.7 +5.3 0.2
07 13.09 ЮВ 2 19 км н/о +8.3 +8.3 100 +7 +7 1035.0 1030.6
08 13.09 ЮВ 2 19 км н/о +11.3 +11.2 99 +10 +10 1035.9 1031.5
09 13.09 Ю 2 22 км н/о +13.6 +10.9 84 +13 +13 1036.2 1031.9
10 13.09 С 2 25 км н/о +14.9 +10.0 72 +15 +15 1036.3 1032.1
11 13.09 СЗ 2 50 км н/о +17.1 +9.5 61 +17 +17 1036.6 1032.3
12 13.09 С 3 30 км н/о +17.8 +9.9 60 +18 +18 1036.5 1032.2
13 13.09 С 4 30 км н/о +17.1 +8.2 56 +17 +17 1036.6 1032.4
14 13.09 З 4 26 км н/о +18.3 +10.6 61 +18 +18 1036.6 1032.3
15 13.09 СЗ 3 50 км н/о +18.2 +9.9 58 +19 +19 1036.6 1032.4
16 13.09 СЗ 4 26 км н/о +17.1 +9.1 59 +17 +17 1036.3 1032.1
17 13.09 СЗ 3 40 км н/о +15.8 +7.6 58 +15 +15 1036.3 1032.0
18 13.09 СЗ 2 30 км н/о +14.3 +7.2 62 +14 +14 1036.6 1032.3 +18.8
19 13.09 СЗ 2 40 км в посл. час дождь н/о +10.7 +6.9 77 +10 +10 1037.0 1032.6
20 13.09 З 1 30 км н/о +9.0 +6.9 87 +8 +8 1037.3 1032.9
21 13.09 штиль 0 22 км н/о +7.0 +6.2 95 +6 +6 1037.3 1032.9
22 13.09 ЮВ 1 20 км н/о +6.2 +5.7 97 +6 +6 1037.1 1032.6
23 13.09 ЮВ 2 17 км н/о +5.2 +4.9 98 +2 +2 1037.0 1032.6
00 14.09 ЮВ 1 2800 м дымка н/о +3.9 +3.6 98 +2 +2 1036.6 1032.2 0.0
01 14.09 В 1 6000 м в посл. час туман н/о +4.3 +4.1 99 +3 +3 1036.7 1032.2
02 14.09 В 1 800 м туман н/о +3.7 +3.6 99 +3 +3 1036.4 1032.0
03 14.09 ЮВ 2 5000 м в посл. час туман н/о +3.5 +3.4 99 +1 +1 1035.8 1031.3
04 14.09 ЮВ 2 14 км н/о +4.4 +4.4 100 +2 +2 1035.2 1030.8
05 14.09 ЮВ 2 1500 м в посл. час туман н/о +3.2 +3.1 99 +1 +1 1034.7 1030.2
06 14.09 ЮВ 2 3700 м в посл. час туман н/о +2.9 +2.9 100 -1 -1 1034.2 1029.7 +2.7 0.0
07 14.09 ЮВ 1 9000 м дымка н/о +6.3 +6.3 100 +5 +5 1034.1 1029.7
08 14.09 Ю 2 19 км н/о +9.9 +9.9 100 +8 +8 1034.0 1029.7
09 14.09 Ю 3 28 км н/о +12.8 +10.2 84 +12 +12 1033.4 1029.1
10 14.09 Ю 3 26 км н/о +14.3 +10.4 77 +13 +13 1033.1 1028.8
11 14.09 ЮЗ 4 29 км н/о +16.6 +9.8 64 +16 +16 1032.3 1028.0
12 14.09 Ю 4 27 км н/о +17.9 +9.8 59 +18 +18 1031.5 1027.3
13 14.09 ЮЗ 4 45 км н/о +18.3 +8.7 53 +18 +18 1030.7 1026.5
14 14.09 ЮЗ 3 35 км н/о +19.3 +9.9 54 +20 +20 1029.7 1025.5
15 14.09 З 4 24 км н/о +20.7 +10.9 53 +23 +23 комфорт 1028.9 1024.7
16 14.09 ЮЗ 3 35 км н/о +20.5 +10.9 54 +23 +23 комфорт 1027.9 1023.8
17 14.09 З 3 40 км н/о +18.7 +9.9 57 +19 +19 1027.3 1023.1
18 14.09 ЮЗ 2 40 км н/о +18.0 +10.1 60 +19 +19 1026.8 1022.6 +20.8
19 14.09 Ю 1 27 км н/о +15.3 +8.8 65 +16 +16 1027.1 1022.8
20 14.09 Ю 3 45 км н/о +14.8 +10.6 76 +14 +14 1026.6 1022.3
21 14.09 ЮЗ 1 26 км н/о +13.4 +10.6 83 +14 +14 1026.5 1022.2
22 14.09 ЮЗ 2 27 км н/о +13.5 +11.3 87 +13 +13 1026.0 1021.7
23 14.09 Ю 3 23 км н/о +13.0 +10.9 87 +12 +12 1025.4 1021.1
00 15.09 Ю 2 27 км н/о +12.3 +10.0 86 +12 +12 1025.1 1020.8
01 15.09 Ю 3 35 км н/о +12.9 +9.9 82 +12 +12 1024.4 1020.2
02 15.09 Ю 3 40 км н/о +13.6 +9.2 75 +13 +13 1024.0 1019.7
03 15.09 Ю 3 40 км н/о +13.3 +10.2 81 +12 +12 1023.7 1019.5
04 15.09 ЮЗ 2 29 км н/о +13.5 +10.7 83 +13 +13 1023.7 1019.4
05 15.09 Ю 2 3700 м в посл. час дождь н/о +13.0 +11.8 92 +12 +12 1023.6 1019.4
06 15.09 ЮЗ 2 3500 м в посл. час дождь н/о +13.4 +13.0 97 +13 +13 1023.5 1019.2 +12.0 0.0
07 15.09 Ю 3 1800 м слаб. морось н/о +13.5 +13.3 99 +12 +12 1023.7 1019.5
08 15.09 ЮЗ 2 3700 м в посл. час морось н/о +14.2 +14.1 99 +14 +14 1024.0 1019.8
09 15.09 С 4 3600 м в посл. час дождь н/о +13.7 +13.6 99 +12 +12 1024.6 1020.4
10 15.09 СЗ 4 19 км н/о +14.0 +13.3 96 +13 +13 1024.8 1020.5
11 15.09 СЗ 2 17 км дымка н/о +13.8 +13.4 97 +13 +13 1024.5 1020.3
12 15.09 З 3 23 км н/о +14.9 +12.8 87 +14 +14 1024.5 1020.3 1
13 15.09 СЗ 3 28 км н/о +15.1 +12.6 85 +15 +15 1024.5 1020.3
14 15.09 З 3 19 км н/о +15.2 +12.3 83 +15 +15 1024.2 1019.9
15 15.09 С 3 16 км н/о +14.3 +12.0 86 +14 +14 1024.1 1019.8
16 15.09 С 2 2300 м дым н/о +13.2 +11.6 90 +12 +12 1023.8 1019.6
17 15.09 СЗ 1 14 км н/о +13.2 +12.1 93 +14 +14 1023.5 1019.2
18 15.09 С 2 11 км слаб. ливневой дождь н/о +13.0 +11.8 92 +12 +12 1023.3 1019.0 +15.5 1
19 15.09 СЗ 1 7000 м слаб. дождь н/о +12.6 +12.0 96 +12 +12 1023.1 1018.8
20 15.09 СЗ 2 3600 м дождь н/о +12.3 +11.8 97 +12 +12 1023.1 1018.9
21 15.09 С 2 1900 м дождь н/о +12.1 +11.9 99 +11 +11 1023.0 1018.7
22 15.09 С 1 2200 м слаб. дождь н/о +12.1 +11.9 99 +12 +12 1023.1 1018.8
23 15.09 СВ 1 2800 м слаб. дождь н/о +12.0 +11.9 99 +13 +13 1022.8 1018.5
00 16.09 СЗ 1 2100 м слаб. морось н/о +12.1 +11.9 99 +12 +12 1022.5 1018.2 4
01 16.09 С 2 2400 м дождь н/о +12.0 +12.0 100 +11 +11 1022.5 1018.3
02 16.09 С 1 2900 м в посл. час дождь н/о +12.0 +12.0 100 +12 +12 1022.3 1018.0
03 16.09 СЗ 2 3600 м дымка н/о +11.9 +11.9 100 +11 +11 1022.1 1017.8
04 16.09 СЗ 2 3400 м дымка н/о +11.8 +11.8 100 +11 +11 1021.5 1017.3
05 16.09 СЗ 1 3200 м дымка н/о +11.8 +11.8 100 +11 +11 1021.5 1017.2
06 16.09 СЗ 2 3500 м дымка н/о +11.6 +11.6 100 +10 +10 1021.5 1017.3 +11.6 6
07 16.09 С 2 3400 м дымка н/о +11.7 +11.7 100 +11 +11 1022.0 1017.7
08 16.09 СЗ 1 8000 м дымка н/о +12.3 +12.3 100 +12 +12 1022.6 1018.3
09 16.09 С 1 14 км н/о +13.3 +13.0 98 +13 +13 1022.9 1018.6
10 16.09 С 2 26 км н/о +14.3 +11.3 82 +14 +14 1023.2 1018.9
11 16.09 СВ 2 30 км н/о +15.7 +10.3 70 +16 +16 1023.3 1019.0
12 16.09 С 2 16 км н/о +15.3 +9.4 68 +15 +15 1023.6 1019.4
13 16.09 СЗ 3 28 км н/о +16.0 +10.9 72 +16 +16 1023.3 1019.0
14 16.09 СЗ 4 28 км н/о +16.6 +10.6 68 +16 +16 1023.2 1018.9
15 16.09 СЗ 4 30 км н/о +15.8 +9.5 66 +15 +15 1023.2 1019.0
16 16.09 СЗ 5 40 км н/о +15.4 +8.3 63 +14 +14 1023.2 1019.0
17 16.09 С 4 50 км н/о +14.8 +8.4 65 +14 +14 1023.6 1019.3
18 16.09 СЗ 4 40 км н/о +13.1 +8.0 71 +12 +12 1023.7 1019.5 +17.5
19 16.09 СЗ 2 45 км н/о +10.9 +8.3 84 +10 +10 1024.3 1020.0
20 16.09 З 1 25 км н/о +8.8 +7.7 93 +9 +9 1024.7 1020.4
21 16.09 Ю 1 22 км н/о +8.0 +7.5 97 +8 +8 1024.8 1020.5
22 16.09 ЮВ 1 15 км н/о +7.4 +7.2 99 +6 +6 1024.7 1020.3
23 16.09 З 1 1200 м в посл. час туман н/о +7.1 +7.0 99 +7 +7 1024.6 1020.2
00 17.09 З 1 15 км в посл. час туман н/о +7.1 +6.9 99 +6 +6 1024.7 1020.4
01 17.09 ЮВ 1 10 км в посл. час туман н/о +5.6 +5.4 99 +4 +4 1024.7 1020.3
02 17.09 З 1 17 км н/о +7.8 +7.8 100 +8 +8 1024.9 1020.5
03 17.09 ЮВ 1 20 км в посл. час туман н/о +8.5 +8.5 100 +8 +8 1024.9 1020.5
04 17.09 Ю 1 21 км н/о +8.6 +8.6 100 +8 +8 1024.6 1020.2
05 17.09 штиль 0 24 км н/о +8.8 +8.8 100 +8 +8 1024.8 1020.4
06 17.09 З 1 21 км н/о +9.0 +8.9 99 +9 +9 1025.3 1021.0 +5.5
07 17.09 З 1 30 км н/о +9.1 +9.1 100 +8 +8 1025.9 1021.5
08 17.09 СЗ 2 23 км н/о +12.0 +11.7 98 +11 +11 1026.1 1021.9
09 17.09 С 4 30 км н/о +13.8 +9.4 75 +12 +12 1026.4 1022.1
10 17.09 С 4 30 км н/о +14.9 +8.0 63 +14 +14 1026.7 1022.4
11 17.09 С 5 30 км н/о +15.6 +7.7 59 +15 +15 1026.8 1022.6
12 17.09 С 5 25 км н/о +16.2 +8.1 59 +15 +15 1026.9 1022.6
13 17.09 С 4 40 км н/о +15.9 +7.6 58 +15 +15 1026.8 1022.6
14 17.09 СЗ 5 24 км н/о +15.7 +7.8 59 +15 +15 1026.9 1022.6

 

Местоположение метеостанции Ростерн Мир (Великобритания): широта 53.35 долгота -2.37 высота над уровнем моря 35 м.

В архиве по умолчанию представлена погода на Ростерн Мир за последнюю неделю. Архивные данные за месяц целиком и за предыдущие месяцы, начиная с января 2011 года, Вы можете получить, выбрав интересующий диапазон дат из раскрывающегося списка и нажав кнопку "Ввод!".


*Определитесь, кто Вы:
робот инопланетянин человек

Внимание! Время в таблицах - всемирное. Для получения местного времени необходимо прибавить поправку, которая равна 0 ч.

Смотрите также архив погоды в соседних городах и на ближайших метеорологических станциях:

Погода в Лик-Торнклифф (Великобритания) (36 км)
Погода в Гавардене (Великобритания) (45 км)
Погода в Кросби (Великобритания) (49 км)
Погода в Лидс-Брэдфорд (Великобритания) (54 км)
Погода в Бингли (Великобритания) (62 км)
Погода в Блэкпуле (Великобритания) (64 км)
Погода в Шобери (Великобритания) (64 км)
Погода в Риле (Великобритания) (76 км)
Погода в Ноттингеме (Великобритания) (84 км)
Погода в Бала (Великобритания) (94 км)

Пояснения к столбцам:

Ветер - указаны скорость ветра в м/с - средняя за 10 мин, порывы в срок и между сроками (в фигурных скобках) и направление, откуда дует ветер: С - северный, СВ - северо-восточный, В - восточный, ЮВ - юго-восточный, Ю - южный, ЮЗ - юго-западный, З - западный, СЗ - северо-западный.
Видимость - горизонтальная дальность видимости в метрах или километрах. При видимости от 1 до 10 км при отсутствии осадков обычно наблюдается дымка, при ухудшении видимости до 1 км и менее - туман. В сухую погоду видимость может ухудшаться дымом, пылью или мглою.
Явления - указаны атмосферные явления, наблюдавшиеся в срок или в последний час перед сроком; фигурными скобками обозначены явления, наблюдавшиеся между сроками (за 1-3 часа до срока); квадратными скобками обозначены град или гололедные отложения с указанием их диаметра в мм.
Облачность - указаны через наклонную черту общая и нижняя облачность в баллах и высота нижней границы облаков в метрах; квадратными скобками обозначены формы облаков: Ci - перистые, Cs - перисто-слоистые, Cc - перисто-кучевые, Ac - высококучевые, As - высокослоистые, Sc - слоисто-кучевые, Ns - слоисто-дождевые, Cu - кучевые, Cb - кучево-дождевые. Подробнее классификацию облаков см. в Атласе облаков (PDF).
T - Температура воздуха - температура, измеренная на высоте 2 м над землей.
Td - Температура точки росы - температура, при понижении до которой содержащийся в воздухе водяной пар достигнет насыщения.
f - Относительная влажность воздуха - влажноcть воздуха, измеренная на высоте 2 м над землей.
Te - Эффективная температура - температура, которую ощущает одетый по сезону человек в тени. Характеристика душности погоды. При расчете учитывается влияние влажности воздуха и скорости ветра на теплоощущения человека.
Tes - Эффективная температура на солнце - температура, которую ощущает человек, с поправкой на солнечный нагрев. Характеристика знойности погоды. Зависит от высоты солнца над горизонтом, облачности и скорости ветра. Ночью, в пасмурную погоду, а также при ветре 12 м/с и более поправка равна нулю.
P - Атмосферное давление - приведенное к уровню моря атмосферное давление.
Po - Атмосферное давление - измеренное на уровне метеостанции атмосферное давление.
Tmin - Минимальная температура - минимум температуры воздуха на высоте 2 м над землей.
Tmax - Максимальная температура - максимум температуры воздуха на высоте 2 м над землей.
R - Количество осадков - Количество выпавших осадков за период времени, мм. При наведении курсора мыши на число - период времени, за который выпало указанное количество осадков.
R24 - Количество осадков - Количество выпавших осадков за 24 часа, мм.
S - Снежный покров - Высота снежного покрова, см. При наведении курсора мыши на число - состояние снежного покрова и степень покрытия местности в баллах.